"2009-01-13 00:00:00",536037,8.74,47.25,3.779,0.725,2.381,98.39103,-4.799,-3.584,52.37,0,109.3,13.68,-4.06,9.2
"2009-01-13 00:00:30",536038,9.26,49.17,3.488,0.492,2.11,98.39159,-4.797,-3.584,52.46,0,109.3,13.68,-4.06,11.2
"2009-01-13 00:01:00",536039,8.9,48.08,3.929,0.751,2.146,98.39243,-4.795,-3.575,52.7,0,109.3,13.68,-4.06,10.1
"2009-01-13 00:01:30",536040,9.15,48.93,3.658,0.691,2.235,98.39271,-4.795,-3.581,52.41,0,109.3,13.68,-4.06,10.9
"2009-01-13 00:02:00",536041,9.5,48.45,3.804,0.6,2.501,98.39298,-4.794,-3.571,52.46,0,109.3,13.68,-4.06,10.5
"2009-01-13 00:02:30",536042,9.31,49.56,4.153,0.431,2.442,98.39355,-4.792,-3.607,51.86,0,109.2,13.68,-4.06,11.6
"2009-01-13 00:03:00",536043,8.66,50.1,4.099,0.654,2.236,98.3941,-4.791,-3.592,52.45,0,109.3,13.69,-4.06,12.1
"2009-01-13 00:03:30",536044,9.1,49.32,3.349,0.614,2.341,98.39298,-4.794,-3.59,52.13,0,109.3,13.69,-4.06,11.3
"2009-01-13 00:04:00",536045,8.9,50.56,4.339,0.759,2.422,98.39494,-4.789,-3.591,52.11,0,109.3,13.69,-4.05,12.6
"2009-01-13 00:04:30",536046,8.85,49.86,3.064,0.689,2.209,98.39012,-4.801,-3.593,52.27,0,109.2,13.69,-4.07,11.9
"2009-01-13 00:05:00",536047,8.62,48.79,4.492,0.608,2.297,98.38612,-4.811,-3.588,52.19,0,109.3,13.69,-4.08,10.8
"2009-01-13 00:05:30",536048,8.76,49.73,3.673,0.622,2.289,98.38523,-4.814,-3.592,52.23,0,109.3,13.69,-4.08,11.7
"2009-01-13 00:06:00",536049,8.83,48.76,3.835,0.43,2.529,98.38581,-4.812,-3.603,52.06,0,109.3,13.69,-4.08,10.8
"2009-01-13 00:06:30",536050,9.26,51.19,3.185,0.69,2.342,98.38635,-4.811,-3.605,52.1,0,109.2,13.69,-4.08,13.2
"2009-01-13 00:07:00",536051,9.38,49.91,3.366,0.631,2.298,98.38464,-4.815,-3.596,51.64,0,109.3,13.69,-4.08,11.9
"2009-01-13 00:07:30",536052,9.39,51.57,3.697,0.721,2.308,98.38492,-4.814,-3.601,51.59,0,109.2,13.7,-4.08,13.6
"2009-01-13 00:08:00",536053,9.48,50.91,3.522,0.65,2.497,98.38407,-4.817,-3.598,51.52,0,109.2,13.7,-4.08,12.9
"2009-01-13 00:08:30",536054,9.77,50.45,4.103,0.384,2.52,98.38435,-4.816,-3.594,51.5,0,109.2,13.7,-4.08,12.5
"2009-01-13 00:09:00",536055,9.29,51.1,4.028,0.795,2.544,98.38548,-4.813,-3.581,51.67,0,109.2,13.7,-4.08,13.1
"2009-01-13 00:09:30",536056,9.58,51.65,3.376,0.747,2.421,98.38378,-4.817,-3.601,51.54,0,109.2,13.7,-4.08,13.7
"2009-01-13 00:10:00",536057,9.71,50.34,4.131,0.627,2.54,98.38208,-4.822,-3.59,51.52,0,109.3,13.7,-4.09,12.3
"2009-01-13 00:10:30",536058,9.32,48.99,3.549,0.46,2.934,98.38464,-4.815,-3.586,51.44,0,109.2,13.7,-4.08,11.0
"2009-01-13 00:11:00",536059,8.98,52.19,5.386,0.646,2.56,98.39342,-4.793,-3.579,52,0,109.2,13.7,-4.06,14.2
"2009-01-13 00:11:30",536060,8.77,49.78,3.524,0.716,2.423,98.39059,-4.8,-3.584,51.97,0,109.2,13.7,-4.06,11.8
"2009-01-13 00:12:00",536061,9.05,50.43,3.849,0.712,2.614,98.3954,-4.788,-3.597,51.69,0,109.2,13.7,-4.05,12.4
"2009-01-13 00:12:30",536062,8.9,51.39,3.226,0.682,2.312,98.40136,-4.773,-3.583,51.62,0,109.2,13.7,-4.04,13.4
"2009-01-13 00:13:00",536063,8.76,47.35,3.507,0.819,2.43,98.40108,-4.773,-3.565,51.88,0,109.2,13.7,-4.04,9.3
"2009-01-13 00:13:30",536064,8.89,47.97,3.421,0.747,2.417,98.40108,-4.773,-3.583,51.53,0,109.2,13.7,-4.04,10.0
"2009-01-13 00:14:00",536065,8.62,49.53,3.981,0.726,2.362,98.40136,-4.773,-3.581,51.65,0,109.2,13.7,-4.04,11.5
"2009-01-13 00:14:30",536066,7.403,47.73,3.876,0.999,2.085,98.39654,-4.785,-3.574,52.11,0,109.1,13.7,-4.05,9.7
"2009-01-13 00:15:00",536067,8.34,47.7,4.258,0.779,2.158,98.38066,-4.825,-3.574,52.45,0,109.2,13.7,-4.09,9.7
"2009-01-13 00:15:30",536068,8.99,47.87,3.61,0.545,2.186,98.37415,-4.842,-3.586,52.04,0,109.2,13.7,-4.11,9.9
"2009-01-13 00:16:00",536069,8.83,50.21,4.521,0.481,2.252,98.37017,-4.852,-3.6,52.45,0,109.2,13.7,-4.12,12.2
"2009-01-13 00:16:30",536070,8.34,47.33,4.686,0.817,2.301,98.36734,-4.859,-3.602,52.47,0,109.2,13.7,-4.12,9.3
"2009-01-13 00:17:00",536071,9.37,48.22,4.413,0.738,2.455,98.36734,-4.859,-3.591,51.97,0,109.2,13.7,-4.12,10.2
"2009-01-13 00:17:30",536072,9.74,46.92,3.719,0.812,2.526,98.36791,-4.858,-3.597,51.86,0,109.2,13.7,-4.12,8.9
"2009-01-13 00:18:00",536073,9.72,47.77,3.725,0.67,2.427,98.37017,-4.852,-3.596,51.81,0,109.2,13.7,-4.12,9.8
"2009-01-13 00:18:30",536074,9.59,46.59,3.689,0.528,2.812,98.37244,-4.846,-3.6,51.72,0,109.2,13.7,-4.11,8.6
"2009-01-13 00:19:00",536075,9.67,48.22,3.292,0.607,2.531,98.37186,-4.848,-3.572,51.55,0,109.2,13.7,-4.11,10.2
"2009-01-13 00:19:30",536076,8.93,46.44,4.06,0.951,2.556,98.37129,-4.849,-3.577,51.69,0,109.2,13.7,-4.11,8.4
"2009-01-13 00:20:00",536077,9.38,47.01,4.002,0.626,2.773,98.37183,-4.848,-3.576,51.53,0,109.2,13.7,-4.11,9.0
"2009-01-13 00:20:30",536078,9.2,47.32,3.677,0.518,2.71,98.3738,-4.843,-3.576,51.58,0,109.2,13.7,-4.11,9.3
"2009-01-13 00:21:00",536079,9.07,46.68,3.672,0.584,2.747,98.37775,-4.833,-3.569,51.57,0,109.2,13.7,-4.10,8.7
"2009-01-13 00:21:30",536080,9.17,46.61,4.141,0.626,2.635,98.38309,-4.819,-3.568,51.55,0,109.2,13.7,-4.08,8.6
"2009-01-13 00:22:00",536081,9.61,47.43,3.451,0.576,2.535,98.38789,-4.807,-3.564,51.44,0,109.2,13.7,-4.07,9.4
"2009-01-13 00:22:30",536082,8.84,46.83,2.614,0.622,2.499,98.3918,-4.797,-3.574,51.39,0,109.2,13.7,-4.06,8.8
"2009-01-13 00:23:00",536083,8.37,45.95,3.76,0.542,2.535,98.3949,-4.789,-3.565,51.65,0,109.2,13.71,-4.05,8.0
"2009-01-13 00:23:30",536084,8.89,48.44,3.738,0.516,2.485,98.39773,-4.782,-3.556,51.63,0,109.2,13.71,-4.05,10.4
"2009-01-13 00:24:00",536085,8.65,46.77,4.043,0.509,2.646,98.40139,-4.772,-3.54,51.53,0,109.2,13.71,-4.04,8.8
"2009-01-13 00:24:30",536086,8.68,48.24,3.747,0.39,2.59,98.41102,-4.748,-3.536,51.87,0,109.2,13.71,-4.01,10.2
"2009-01-13 00:25:00",536087,8.78,49.48,4.175,0.624,2.507,98.41837,-4.729,-3.536,51.88,0,109.2,13.71,-3.99,11.5
"2009-01-13 00:25:30",536088,8.9,49.39,4.289,0.603,2.487,98.42061,-4.724,-3.536,51.8,0,109.2,13.71,-3.99,11.4
"2009-01-13 00:26:00",536089,8.93,50.36,3.917,0.639,2.54,98.41949,-4.726,-3.539,51.74,0,109.2,13.71,-3.99,12.4
"2009-01-13 00:26:30",536090,9.02,50.58,3.739,0.325,2.479,98.41921,-4.727,-3.534,51.69,0,109.2,13.71,-3.99,12.6
"2009-01-13 00:27:00",536091,8.99,48.65,4.259,0.554,2.572,98.41949,-4.726,-3.486,51.28,0,109.2,13.71,-3.99,10.7
"2009-01-13 00:27:30",536092,8.94,49.13,3.532,0.63,2.403,98.41866,-4.729,-3.51,50.55,0,109.2,13.71,-3.99,11.1
"2009-01-13 00:28:00",536093,8.7,49.16,3.329,0.61,2.521,98.41921,-4.727,-3.513,50.22,0,109.2,13.71,-3.99,11.2
"2009-01-13 00:28:30",536094,8.79,50.74,3.2,0.596,2.383,98.41978,-4.726,-3.503,50.01,0,109.2,13.71,-3.99,12.7
"2009-01-13 00:29:00",536095,8.54,49.1,4.036,0.538,2.449,98.42006,-4.725,-3.503,49.27,0,109.2,13.71,-3.99,11.1
"2009-01-13 00:29:30",536096,8.51,49.31,4.183,0.58,2.45,98.41978,-4.726,-3.501,49.82,0,109.2,13.71,-3.99,11.3
"2009-01-13 00:30:00",536097,8.46,51.64,5.787,0.747,2.566,98.41894,-4.728,-3.497,50.4,0,109.2,13.71,-3.99,13.6
"2009-01-13 00:30:30",536098,8.85,51.79,4.053,0.599,2.307,98.42404,-4.715,-3.494,50.49,0,109.2,13.71,-3.98,13.8
"2009-01-13 00:31:00",536099,8.08,49.52,4.465,0.622,2.332,98.42858,-4.703,-3.486,50.37,0,109.2,13.71,-3.97,11.5
"2009-01-13 00:31:30",536100,7.926,46.39,4.196,0.861,2.269,98.43226,-4.694,-3.472,50.2,0,109.2,13.71,-3.96,8.4
"2009-01-13 00:32:00",536101,7.877,45.45,4.038,0.725,2.324,98.43452,-4.688,-3.477,50.44,0,109.2,13.71,-3.95,7.5
"2009-01-13 00:32:30",536102,8.39,46.15,4.633,0.727,2.101,98.4362,-4.684,-3.483,50.63,0,109.2,13.71,-3.95,8.2
"2009-01-13 00:33:00",536103,8.46,46.42,3.816,0.66,2.049,98.43761,-4.68,-3.447,50.62,0,109.2,13.71,-3.94,8.4
"2009-01-13 00:33:30",536104,8.42,47.03,3.819,0.593,2.123,98.43785,-4.68,-3.458,50.5,0,109.2,13.71,-3.94,9.0
"2009-01-13 00:34:00",536105,8.4,47.05,3.593,0.595,2.251,98.43443,-4.688,-3.46,50.51,0,109.2,13.71,-3.95,9.0
"2009-01-13 00:34:30",536106,8.22,46.5,3.337,0.6,2.175,98.43303,-4.692,-3.46,50.56,0,109.2,13.71,-3.96,8.5
"2009-01-13 00:35:00",536107,8.42,46.41,3.809,0.593,2.056,98.43413,-4.689,-3.453,50.58,0,109.2,13.71,-3.95,8.4
"2009-01-13 00:35:30",536108,8.16,44.86,3.798,0.595,2.061,98.43327,-4.691,-3.472,50.6,0,109.2,13.71,-3.96,6.9
"2009-01-13 00:36:00",536109,7.94,44.54,3.76,0.668,2.161,98.42845,-4.704,-3.469,50.71,0,109.2,13.71,-3.97,6.5
"2009-01-13 00:36:30",536110,7.489,43.7,3.87,0.618,2.155,98.42702,-4.707,-3.479,50.83,0,109.1,13.71,-3.97,5.7
"2009-01-13 00:37:00",536111,7.016,41.96,4.304,0.657,2.053,98.42647,-4.709,-3.47,50.83,0,109.2,13.71,-3.97,4.0
"2009-01-13 00:37:30",536112,7.139,42.27,4.119,0.563,1.941,98.42814,-4.704,-3.486,49.65,0,109.2,13.71,-3.97,4.3
"2009-01-13 00:38:00",536113,8.18,45.26,3.917,0.762,1.882,98.42814,-4.704,-3.47,50.18,0,109.2,13.71,-3.97,7.3
"2009-01-13 00:38:30",536114,8.66,46.68,3.652,0.597,1.986,98.42842,-4.704,-3.489,49.47,0,109.2,13.71,-3.97,8.7
"2009-01-13 00:39:00",536115,8.8,47.69,3.788,0.655,2.002,98.42814,-4.704,-3.496,49.83,0,109.2,13.71,-3.97,9.7
"2009-01-13 00:39:30",536116,8.62,47.67,4.686,0.98,2.113,98.4253,-4.712,-3.499,50.45,0,109.2,13.71,-3.98,9.7
"2009-01-13 00:40:00",536117,8.22,47.43,3.747,0.874,2.16,98.41,-4.751,-3.493,50.68,0,109.2,13.72,-4.02,9.4
"2009-01-13 00:40:30",536118,8.96,49.84,3.228,0.492,2.218,98.4029,-4.769,-3.53,50.38,0,109.2,13.72,-4.03,11.8
"2009-01-13 00:41:00",536119,8.39,48.27,4.471,0.581,2.308,98.3981,-4.781,-3.526,50.47,0,109.2,13.71,-4.05,10.3
"2009-01-13 00:41:30",536120,8.2,46.61,3.652,0.62,2.247,98.3978,-4.782,-3.533,50.7,0,109.2,13.72,-4.05,8.6
"2009-01-13 00:42:00",536121,7.873,44.45,3.778,0.691,2.359,98.39413,-4.791,-3.522,50.95,0,109.2,13.72,-4.06,6.5
"2009-01-13 00:42:30",536122,8.11,45.05,3.804,0.758,2.101,98.39328,-4.793,-3.521,51.07,0,109.2,13.72,-4.06,7.0
"2009-01-13 00:43:00",536123,7.81,45.21,4.55,0.999,2.144,98.39328,-4.793,-3.523,51.33,0,109.2,13.72,-4.06,7.2
"2009-01-13 00:43:30",536124,8.11,45.98,4.275,0.542,2.1,98.39272,-4.795,-3.557,51.35,0,109.2,13.72,-4.06,8.0
"2009-01-13 00:44:00",536125,7.612,43.95,4.937,0.962,2.033,98.393,-4.794,-3.529,51.67,0,109.2,13.72,-4.06,6.0
"2009-01-13 00:44:30",536126,6.453,40.59,5.962,0.798,1.597,98.38705,-4.809,-3.572,51.82,0,109.2,13.72,-4.07,2.6
"2009-01-13 00:45:00",536127,6.066,36.49,5.078,0.698,1.407,98.36918,-4.854,-3.593,52.03,0,109.2,13.72,-4.12,358.5
"2009-01-13 00:45:30",536128,6.734,42.9,5.044,0.858,1.117,98.36065,-4.876,-3.624,52.21,0,109.2,13.72,-4.14,4.9
"2009-01-13 00:46:00",536129,5.802,40.04,3.241,0.601,0.973,98.34705,-4.911,-3.658,52.48,0,109.2,13.72,-4.18,2.0
"2009-01-13 00:46:30",536130,5.453,40.13,4.664,0.616,0.979,98.32946,-4.956,-3.674,52.76,0,109.2,13.72,-4.22,2.1
"2009-01-13 00:47:00",536131,5.563,37.24,5.01,0.732,0.425,98.32578,-4.965,-3.713,52.9,0,109.2,13.72,-4.23,359.2
"2009-01-13 00:47:30",536132,5.798,39.15,3.703,0.778,0.143,98.3062,-5.015,-3.74,53.14,0,109.2,13.72,-4.28,1.2
"2009-01-13 00:48:00",536133,5.726,37.68,6.094,0.638,0.33,98.29653,-5.039,-3.762,53.15,0,109.2,13.73,-4.31,359.7
"2009-01-13 00:48:30",536134,5.805,39.8,3.928,0.766,-0.116,98.29484,-5.044,-3.815,53.41,0,109.2,13.73,-4.31,1.8
"2009-01-13 00:49:00",536135,5.748,36.71,7.101,0.917,-0.199,98.29368,-5.047,-3.823,53.36,0,109.2,13.73,-4.31,358.7
"2009-01-13 00:49:30",536136,5.908,37.46,4.824,1.092,-0.455,98.29368,-5.047,-3.896,53.15,0,109.2,13.72,-4.31,359.5
"2009-01-13 00:50:00",536137,5.843,40.53,6.788,1.383,-1.379,98.29705,-5.038,-3.999,53.07,0,109.2,13.72,-4.30,2.5
"2009-01-13 00:50:30",536138,6.883,42.31,4.396,0.896,0.082,98.29592,-5.041,-3.89,53.26,0,109.2,13.72,-4.31,4.3
"2009-01-13 00:51:00",536139,7.095,43.39,4.11,0.967,1.016,98.29649,-5.04,-3.835,53.12,0,109.2,13.72,-4.31,5.4
"2009-01-13 00:51:30",536140,8.1,43.81,3.471,0.738,1.308,98.29874,-5.034,-3.846,52.87,0,109.2,13.72,-4.30,5.8
"2009-01-13 00:52:00",536141,8.09,35.02,9.1,0.662,1.786,98.29874,-5.034,-3.844,52.89,0,109.2,13.72,-4.30,357.0
"2009-01-13 00:52:30",536142,6.698,37.19,6.57,0.588,1.597,98.29591,-5.041,-3.845,53.24,0,109.1,13.72,-4.31,359.2
"2009-01-13 00:53:00",536143,6.028,40.28,5.565,0.842,1.235,98.28484,-5.069,-3.83,53.39,0,109.2,13.72,-4.34,2.3
"2009-01-13 00:53:30",536144,5.762,41.92,4.273,0.792,0.882,98.27011,-5.107,-3.876,53.66,0,109.2,13.72,-4.37,3.9
"2009-01-13 00:54:00",536145,6.091,41.7,5.793,0.786,0.654,98.26472,-5.12,-3.873,53.63,0,109.2,13.72,-4.39,3.7
"2009-01-13 00:54:30",536146,5.566,40.01,4.976,0.89,0.624,98.26472,-5.12,-3.882,53.51,0,109.2,13.73,-4.39,2.0
"2009-01-13 00:55:00",536147,6.456,40.21,5.088,0.736,0.35,98.26472,-5.12,-3.903,53.43,0,109.2,13.73,-4.39,2.2
"2009-01-13 00:55:30",536148,6.464,43.74,10.41,0.685,0.32,98.26472,-5.12,-3.915,53.71,0,109.2,13.73,-4.39,5.7
"2009-01-13 00:56:00",536149,5.735,49.05,7.994,0.857,0.279,98.25478,-5.146,-3.923,54.19,0,109.2,13.73,-4.41,11.0
"2009-01-13 00:56:30",536150,6.249,50.3,5.837,0.597,0.306,98.2477,-5.164,-3.944,54.14,0,109.2,13.73,-4.43,12.3
"2009-01-13 00:57:00",536151,5.81,40.61,6.811,0.768,0.116,98.24259,-5.177,-3.945,54.26,0,109.2,13.73,-4.44,2.6
"2009-01-13 00:57:30",536152,6.372,45.29,6.384,0.62,0.131,98.23919,-5.185,-3.963,54.06,0,109.2,13.73,-4.45,7.3
"2009-01-13 00:58:00",536153,6.049,53.83,8.07,0.759,0.059,98.23948,-5.185,-3.991,54.04,0,109.2,13.73,-4.45,15.8
"2009-01-13 00:58:30",536154,6.169,58.18,8.79,0.853,0.227,98.23295,-5.201,-3.981,54.56,0,109.2,13.73,-4.47,20.2
"2009-01-13 00:59:00",536155,5.089,43.66,19.08,1.104,0.159,98.23069,-5.207,-3.981,54.45,0,109.2,13.73,-4.47,5.7
"2009-01-13 00:59:30",536156,5.534,46.77,9.22,0.787,0.066,98.23069,-5.207,-3.974,54.69,0,109.2,13.73,-4.47,8.8
"2009-01-13 01:00:00",536157,6.155,40.55,6.925,1.152,-0.295,98.23069,-5.207,-3.995,54.55,0,109.2,13.73,-4.47,2.5
"2009-01-13 01:00:30",536158,4.806,33.48,14.75,0.805,-0.959,98.23069,-5.207,-4.009,54.74,0,109.2,13.73,-4.47,355.5
"2009-01-13 01:01:00",536159,2.437,16.03,15.42,1.472,-2.783,98.2304,-5.208,-4.174,54.71,0,109.2,13.73,-4.47,338.0
"2009-01-13 01:01:30",536160,3.309,30,4.638,0.911,-2.931,98.2131,-5.252,-4.278,55.09,0,109.2,13.74,-4.52,352.0
"2009-01-13 01:02:00",536161,4.33,32.28,5.831,1.249,-1.025,98.21395,-5.25,-4.031,54.9,0,109.2,13.74,-4.52,354.3
"2009-01-13 01:02:30",536162,5.035,39.85,6.928,0.996,0.486,98.21197,-5.255,-4.029,54.99,0,109.2,13.74,-4.52,1.8
"2009-01-13 01:03:00",536163,5.773,45.7,5.346,0.942,0.575,98.21254,-5.253,-4.022,55,0,109.2,13.74,-4.52,7.7
"2009-01-13 01:03:30",536164,4.903,27.84,19.19,0.897,0.603,98.20942,-5.261,-4.026,55.28,0,109.2,13.74,-4.53,349.8
"2009-01-13 01:04:00",536165,4.65,349.1,18.93,0.985,-0.941,98.19893,-5.288,-4.124,55.57,0,109.2,13.74,-4.55,311.1
"2009-01-13 01:04:30",536166,3.966,347.1,15.39,0.904,-2.766,98.19666,-5.294,-4.283,55.36,0,109.2,13.74,-4.56,309.1
"2009-01-13 01:05:00",536167,3.941,27.07,7.575,1.091,-1.322,98.19722,-5.292,-4.121,55.26,0,109.1,13.74,-4.56,349.1
"2009-01-13 01:05:30",536168,3.223,2.293,20.94,1.254,-1.347,98.19777,-5.291,-4.206,55.44,0,109.2,13.74,-4.56,324.3
"2009-01-13 01:06:00",536169,3.098,30.52,12.91,0.954,-0.419,98.18955,-5.312,-4.099,55.82,0,109.2,13.74,-4.58,352.5
"2009-01-13 01:06:30",536170,2.04,40.14,12.22,0.886,-4.135,98.17932,-5.338,-4.277,55.8,0,109.2,13.74,-4.60,2.1
"2009-01-13 01:07:00",536171,4.959,51.07,9.66,1.141,-1.066,98.18234,-5.33,-4.153,55.42,0,109.2,13.74,-4.60,13.1
"2009-01-13 01:07:30",536172,3.229,47.49,10.77,1.137,-1.873,98.19394,-5.301,-4.203,55.33,0,109.2,13.74,-4.57,9.5
"2009-01-13 01:08:00",536173,3.36,49.36,16.31,0.701,-0.18,98.19021,-5.31,-4.082,55.85,0,109.2,13.74,-4.58,11.4
"2009-01-13 01:08:30",536174,2.787,35.82,18.49,1.165,-1.494,98.18592,-5.321,-4.196,55.75,0,109.2,13.74,-4.59,357.8
"2009-01-13 01:09:00",536175,2.551,28.28,16.78,0.853,-2.901,98.18475,-5.324,-4.291,55.47,0,109.2,13.74,-4.59,350.3
"2009-01-13 01:09:30",536176,3.678,29.36,6.139,1.176,-2.138,98.19412,-5.3,-4.291,55.17,0,109.2,13.74,-4.57,351.4
"2009-01-13 01:10:00",536177,4.636,47.04,7.184,1.291,-1.608,98.21028,-5.259,-4.232,55.04,0,109.2,13.74,-4.53,9.0
"2009-01-13 01:10:30",536178,5.572,50.36,4.749,0.965,0.471,98.21365,-5.25,-4.076,55.22,0,109.2,13.75,-4.52,12.4
"2009-01-13 01:11:00",536179,7.014,51.29,3.919,0.662,0.96,98.21281,-5.253,-4.054,55.09,0,109.2,13.75,-4.52,13.3
"2009-01-13 01:11:30",536180,6.727,48.53,4.967,0.794,1.02,98.21533,-5.246,-4.072,54.96,0,109.2,13.75,-4.51,10.5
"2009-01-13 01:12:00",536181,6.345,45.75,7.007,0.781,0.721,98.21873,-5.238,-4.055,55.12,0,109.2,13.75,-4.50,7.8
"2009-01-13 01:12:30",536182,5.035,45.86,6.213,0.919,0.572,98.21815,-5.239,-4.04,55.22,0,109.2,13.75,-4.51,7.9
"2009-01-13 01:13:00",536183,3.997,38.19,13.66,0.755,0.434,98.21476,-5.248,-4.065,55.48,0,109.2,13.75,-4.51,0.2
"2009-01-13 01:13:30",536184,2.743,35.53,14.32,1.184,-1.462,98.21449,-5.248,-4.161,55.71,0,109.2,13.75,-4.51,357.5
"2009-01-13 01:14:00",536185,1.708,35.52,6.44,0.279,-4.842,98.20483,-5.273,-4.355,55.66,0,109.2,13.78,-4.54,357.5
"2009-01-13 01:14:30",536186,1.643,23.45,10.39,0.427,-4.549,98.19062,-5.309,-4.361,55.52,0,109.2,13.78,-4.58,345.5
"2009-01-13 01:15:00",536187,2.81,31.11,21.49,1.314,-1.751,98.1824,-5.33,-4.22,55.96,0,109.2,13.76,-4.60,353.1
"2009-01-13 01:15:30",536188,4.117,54.63,10.35,0.74,0.874,98.18603,-5.321,-4.089,55.89,0,109.2,13.76,-4.59,16.6
"2009-01-13 01:16:00",536189,4.347,45.63,5.51,0.664,0.852,98.20557,-5.271,-4.083,55.17,0,109.2,13.76,-4.54,7.6
"2009-01-13 01:16:30",536190,4.563,48.13,7.387,0.829,0.498,98.22089,-5.232,-4.047,55.14,0,109.2,13.76,-4.50,10.1
"2009-01-13 01:17:00",536191,5.212,46.89,5.242,0.775,0.255,98.22312,-5.226,-4.057,54.79,0,109.2,13.76,-4.49,8.9
"2009-01-13 01:17:30",536192,4.559,44.98,7.072,0.542,-0.097,98.23335,-5.2,-4.054,54.39,0,109.2,13.76,-4.47,7.0
"2009-01-13 01:18:00",536193,2.927,42.65,6.412,1.129,-3.125,98.2387,-5.187,-4.252,54.47,0,109.2,13.76,-4.45,4.7
"2009-01-13 01:18:30",536194,2.266,37.76,3.572,0.345,-4.72,98.2271,-5.216,-4.315,54.65,0,109.2,13.79,-4.48,359.8
"2009-01-13 01:19:00",536195,2.971,46.92,5.964,0.57,-3.339,98.22285,-5.227,-4.199,54.6,0,109.2,13.76,-4.49,8.9
"2009-01-13 01:19:30",536196,4.414,51.96,10.12,0.693,1.017,98.22881,-5.212,-4.012,54.53,0,109.2,13.76,-4.48,14.0
"2009-01-13 01:20:00",536197,4.648,55.42,7.551,0.768,1.113,98.22598,-5.219,-4.025,54.65,0,109.2,13.77,-4.49,17.4
"2009-01-13 01:20:30",536198,4.685,52.9,5.733,0.718,0.881,98.22483,-5.222,-4.032,54.51,0,109.2,13.76,-4.49,14.9
"2009-01-13 01:21:00",536199,4.306,51.48,4.369,0.668,0.355,98.2234,-5.226,-4.027,54.68,0,109.2,13.76,-4.49,13.5
"2009-01-13 01:21:30",536200,4.68,58.4,7.633,0.773,-0.607,98.22256,-5.228,-4.095,54.61,0,109.2,13.76,-4.49,20.4
"2009-01-13 01:22:00",536201,2.72,44.9,6.418,0.21,-4.188,98.22478,-5.222,-4.303,54.43,0,109.2,13.79,-4.49,6.9
"2009-01-13 01:22:30",536202,3.611,47.61,7.619,1.063,-2.753,98.22478,-5.222,-4.324,54.51,0,109.2,13.76,-4.49,9.6
"2009-01-13 01:23:00",536203,4.255,53.83,8.8,1.111,-0.45,98.22478,-5.222,-4.107,54.89,0,109.2,13.76,-4.49,15.8
"2009-01-13 01:23:30",536204,4.629,59.3,4.351,0.932,0.781,98.22507,-5.221,-4.049,55.09,0,109.2,13.76,-4.49,21.3
"2009-01-13 01:24:00",536205,4.398,56.85,5.858,0.674,1.018,98.22451,-5.223,-4.046,54.81,0,109.2,13.76,-4.49,18.8
"2009-01-13 01:24:30",536206,4.258,47.63,11.54,0.812,0.247,98.22786,-5.214,-4.038,54.94,0,109.2,13.76,-4.48,9.6
"2009-01-13 01:25:00",536207,3.195,42.91,4.849,0.915,-2.597,98.22785,-5.214,-4.17,54.79,0,109.2,13.76,-4.48,4.9
"2009-01-13 01:25:30",536208,2.825,41.47,5.394,1.16,-3.578,98.22952,-5.21,-4.35,54.78,0,109.2,13.76,-4.48,3.5
"2009-01-13 01:26:00",536209,3.132,49.2,5.551,0.985,-2.621,98.22499,-5.222,-4.169,54.93,0,109.2,13.76,-4.49,11.2
"2009-01-13 01:26:30",536210,4.446,60.93,5.766,0.728,0.321,98.20684,-5.268,-4.102,55.09,0,109.2,13.76,-4.53,22.9
"2009-01-13 01:27:00",536211,4.182,72.91,6.234,0.756,0.572,98.20257,-5.279,-4.051,55.32,0,109.2,13.76,-4.55,34.9
"2009-01-13 01:27:30",536212,3.858,60.12,12.31,0.887,-0.24,98.19946,-5.287,-4.14,55.18,0,109.2,13.77,-4.55,22.1
"2009-01-13 01:28:00",536213,2.726,48.65,8.57,1.089,-2.899,98.19946,-5.287,-4.322,54.95,0,109.2,13.77,-4.55,10.7
"2009-01-13 01:28:30",536214,2.597,71.02,13.56,1.215,-1.983,98.2037,-5.276,-4.298,54.91,0,109.1,13.77,-4.54,33.0
"2009-01-13 01:29:00",536215,1.097,61.67,9.25,0.869,-2.966,98.20314,-5.277,-4.19,55.17,0,109.2,13.77,-4.54,23.7
"2009-01-13 01:29:30",536216,1.218,40.82,7.438,1.067,-2.929,98.1969,-5.293,-4.268,55.09,0,109.2,13.77,-4.56,2.8
"2009-01-13 01:30:00",536217,2.187,43.35,12.39,1.149,-1.027,98.19604,-5.295,-4.165,55.3,0,109.2,13.77,-4.56,5.3
"2009-01-13 01:30:30",536218,1.836,126.5,39.96,1.035,-1.069,98.19604,-5.295,-4.223,55.37,0,109.2,13.77,-4.56,88.5
"2009-01-13 01:31:00",536219,1.727,101.1,9.8,0.941,-3.262,98.19604,-5.295,-4.266,55.42,0,109.2,13.78,-4.56,63.1
"2009-01-13 01:31:30",536220,1.384,86.4,12.36,0.222,-4.765,98.19604,-5.295,-4.396,55.36,0,109.1,13.81,-4.56,48.4
"2009-01-13 01:32:00",536221,1.862,74.95,7.211,1.097,-3.248,98.19604,-5.295,-4.237,55.37,0,109.1,13.78,-4.56,36.9
"2009-01-13 01:32:30",536222,3.512,68.81,11.06,1.067,-1.016,98.19604,-5.295,-4.244,55.19,0,109.1,13.78,-4.56,30.8
"2009-01-13 01:33:00",536223,4.064,63.63,7.243,0.772,0.196,98.19604,-5.295,-4.102,55.34,0,109.1,13.78,-4.56,25.6
"2009-01-13 01:33:30",536224,3.672,77.44,17.32,0.67,0.65,98.19604,-5.295,-4.086,55.38,0,109.1,13.78,-4.56,39.4
"2009-01-13 01:34:00",536225,2.747,82.8,10.29,1.267,-1.016,98.19604,-5.295,-4.188,55.44,0,109.1,13.78,-4.56,44.8
"2009-01-13 01:34:30",536226,1.598,80.8,14.51,0.315,-4.087,98.19463,-5.299,-4.309,55.44,0,109.2,13.81,-4.57,42.8
"2009-01-13 01:35:00",536227,2.907,80.7,13.56,1.43,-2.299,98.19264,-5.304,-4.354,55.3,0,109.1,13.78,-4.57,42.7
"2009-01-13 01:35:30",536228,2.843,92.4,21,1.559,-1.869,98.18839,-5.315,-4.195,55.57,0,109.1,13.78,-4.58,54.4
"2009-01-13 01:36:00",536229,3.541,89.3,6.102,1.005,0.258,98.18981,-5.311,-4.152,55.46,0,109.1,13.78,-4.58,51.3
"2009-01-13 01:36:30",536230,3.488,84.3,7.09,0.959,0.159,98.19548,-5.297,-4.165,55.37,0,109.1,13.78,-4.56,46.3
"2009-01-13 01:37:00",536231,3.673,72.18,8.95,1.079,-0.593,98.19604,-5.295,-4.197,55.21,0,109.1,13.78,-4.56,34.2
"2009-01-13 01:37:30",536232,2.867,68.15,5.632,1.118,-2.637,98.19604,-5.295,-4.35,55.05,0,109.1,13.78,-4.56,30.2
"2009-01-13 01:38:00",536233,1.882,71.8,5.245,0.489,-3.742,98.19604,-5.295,-4.274,55.04,0,109.1,13.81,-4.56,33.8
"2009-01-13 01:38:30",536234,3.581,85.7,5.8,1.061,-0.822,98.19604,-5.295,-4.21,54.87,0,109.1,13.78,-4.56,47.7
"2009-01-13 01:39:00",536235,3.473,85.6,8.21,1.008,-0.113,98.19604,-5.295,-4.16,54.83,0,109.1,13.78,-4.56,47.6
"2009-01-13 01:39:30",536236,3.538,95.8,12.14,0.73,-0.006,98.19604,-5.295,-4.147,55.02,0,109.1,13.78,-4.56,57.8
"2009-01-13 01:40:00",536237,2.38,93.9,15.62,1.263,-1.434,98.19604,-5.295,-4.172,55.13,0,109.1,13.78,-4.56,55.9
"2009-01-13 01:40:30",536238,1.436,123.4,12.32,1.029,-3.946,98.19604,-5.295,-4.375,55.09,0,109.1,13.78,-4.56,85.4
"2009-01-13 01:41:00",536239,0.202,80,77.99,0.241,-4.319,98.1952,-5.297,-4.295,55.29,0,109.1,13.78,-4.56,42.0
"2009-01-13 01:41:30",536240,1.861,185.7,80.3,1.194,-1.831,98.18073,-5.334,-4.322,55.35,0,109.1,13.78,-4.60,147.7
"2009-01-13 01:42:00",536241,0.626,87.6,40.13,0.913,-3.135,98.17818,-5.341,-4.267,55.45,0,109.1,13.78,-4.61,49.6
"2009-01-13 01:42:30",536242,0.419,39.19,10.49,0.874,-4.493,98.17307,-5.354,-4.388,55.43,0,109.1,13.78,-4.62,1.2
"2009-01-13 01:43:00",536243,1.879,54.68,11.08,1.255,-2.215,98.16599,-5.372,-4.197,55.52,0,109.1,13.78,-4.64,16.7
"2009-01-13 01:43:30",536244,1.48,52.29,21.61,1.148,-1.55,98.1623,-5.381,-4.18,55.44,0,109.1,13.79,-4.65,14.3
"2009-01-13 01:44:00",536245,0.582,77.66,29.11,0.945,-3.831,98.16201,-5.382,-4.314,55.51,0,109.1,13.79,-4.65,39.7
"2009-01-13 01:44:30",536246,0.437,101.1,7.275,0.16,-5.159,98.16201,-5.382,-4.424,55.43,0,109.1,13.82,-4.65,63.1
"2009-01-13 01:45:00",536247,1.28,83.8,14.14,1.128,-2.644,98.16201,-5.382,-4.276,55.58,0,109.1,13.79,-4.65,45.8
"2009-01-13 01:45:30",536248,0.736,117,15.05,1.095,-3.569,98.16201,-5.382,-4.296,55.62,0,109.1,13.79,-4.65,79.0
"2009-01-13 01:46:00",536249,0.999,82.6,10.48,1.088,-2.611,98.16228,-5.381,-4.317,55.45,0,109.1,13.8,-4.65,44.6
"2009-01-13 01:46:30",536250,0.167,64.37,37.72,0.723,-3.822,98.16285,-5.38,-4.4,55.34,0,109.1,13.8,-4.65,26.4
"2009-01-13 01:47:00",536251,1.738,98.1,9.33,1.11,-1.889,98.16369,-5.378,-4.307,55.45,0,109.1,13.8,-4.64,60.1